RH
52 52 51 50 52 52 52 50 49 49 47 46 44 42 40 43 44 46 52 54 55 55
44 48 50 51 51 53 53 52 53 53 50 48 46 42 39 39 40 42 48 56 61 59
42 43 46 48 53 55 55 56 56 54 52 50 48 43 41 41 42 45 46 49 56 57
43 44 44 46 48 52 57 58 58 56 54 53 49 46 43 41 41 44 45 48 53 55
44 46 46 44 47 50 57 57 59 58 57 55 53 49 46 45 40 41 44 46 51 52
44 46 47 50 53 56 58 57 56 59 59 57 56 53 49 45 42 42 42 43 46 49
44 45 46 48 51 56 58 58 56 56 56 57 56 54 51 47 43 40 39 41 46 46
46 47 48 48 48 48 50 53 55 57 56 55 56 54 54 53 49 46 43 42 44 49
48 50 51 53 54 52 52 49 50 51 55 62 57 70 70 65 55 50 46 45 43 45
50 51 54 53 53 55 55 54 54 53 54 53 51 68 72 75 62 58 52 48 45 45
52 53 53 54 55 55 54 56 57 56 56 57 55 68 74 74 64 61 59 55 50 48
52 54 53 55 56 57 58 57 57 56 59 58 54 68 74 72 61 60 58 57 54 57
55 56 56 57 58 60 58 57 57 57 55 60 56 61 69 71 59 59 61 59 60 69
54 56 55 58 58 60 60 60 58 56 50 49 50 53 67 72 63 60 62 64 65 62
Wind_Speed
7 6 7 9 8 8 7 7 7 7 7 7 7 6 5 4 4 5 5 7 6 5
5 7 8 10 10 8 10 8 9 9 9 8 8 7 6 5 6 6 6 6 6 6
7 8 9 9 10 11 10 10 10 9 9 8 8 7 7 6 6 7 6 6 7 7
7 8 8 9 9 10 10 9 9 9 9 9 9 8 8 9 8 9 8 8 9 9
7 7 8 8 9 9 8 7 7 8 9 9 9 9 10 10 9 11 11 10 10 10
6 7 8 9 8 7 7 6 6 7 9 10 10 10 10 11 11 11 11 11 11 10
7 7 8 8 8 7 7 7 7 7 8 9 9 10 10 11 11 12 11 11 11 11
6 7 7 8 8 8 7 7 7 7 7 8 8 7 10 10 12 12 13 12 11 12
6 7 7 7 8 8 8 7 8 8 8 8 7 8 12 14 12 13 13 12 12 11
6 6 7 7 8 7 8 8 8 8 8 10 10 9 12 14 12 12 12 12 11 9
6 7 7 7 7 8 7 8 9 9 9 10 9 10 12 13 11 12 13 12 11 11
6 8 8 8 8 8 8 8 8 8 9 9 10 10 12 10 9 10 13 11 11 8
7 7 8 8 8 7 7 8 7 8 7 8 9 11 11 9 7 9 8 9 8 13
7 7 7 8 7 7 8 8 8 8 8 8 7 9 10 10 7 7 6 7 6 6
Wind_Direction
274 273 277 276 274 267 262 260 249 234 235 236 233 232 235 248 254 262 259 266 266 280
293 291 286 285 277 270 267 259 250 240 237 233 233 234 238 246 252 250 255 260 254 254
314 308 306 300 288 281 272 263 253 247 242 242 237 235 233 244 246 246 247 248 248 243
319 319 315 302 300 293 283 270 258 256 252 245 241 235 237 241 247 246 249 240 242 243
324 329 321 317 311 301 285 275 265 259 254 252 246 240 236 239 236 239 242 242 240 242
336 336 336 331 324 311 296 282 272 259 255 253 249 246 241 243 244 244 246 244 241 240
332 331 330 331 330 325 321 307 295 282 277 274 271 261 256 248 247 247 247 245 242 240
327 331 332 334 334 331 323 311 306 300 291 283 275 269 262 252 252 249 248 242 239 238
327 328 333 332 330 326 321 318 314 311 308 301 287 283 268 259 261 254 249 247 240 239
319 321 327 325 320 320 318 317 316 314 314 309 304 299 283 271 259 259 256 247 242 237
308 309 306 305 308 318 323 324 326 323 318 307 300 300 293 285 268 258 250 250 241 236
292 295 301 307 319 323 323 323 319 313 307 303 303 310 301 294 274 262 254 246 241 225
276 283 297 311 315 312 305 301 302 297 297 300 297 309 307 295 272 264 257 248 236 218
286 292 294 296 294 296 300 300 298 298 307 305 308 308 313 303 277 264 255 244 226 220